AURA

Last updated on Wed Jul 02 2025 00:02:29 GMT+0000 (Coordinated Universal Time)

1 28376U 04026A 25182.58980551 .00000648 00000+0 14337-3 0 9995 2 28376 98.2947 132.3755 0001402 69.5249 290.6101 14.60467323115029
UTC large
Height (km)
Speed (km/s)
/
Latitude / Longitude
Inclination (degrees)
Orbital Period (minutes)
Azimuth
Elevation
Range (km)
Doppler Factor

Next 0 passes for location: London (51.5072 / 0.1276)

Sorry there are no passes over London.